Temp
12 12 12 12 11 10 10 10 10 9 9 9 9 8 9 9 9 9 9 8 7 6 6 6 5 5 4 4 4 4 3 3 3 5 4 4 4 3 3 3 3 4 4
13 12 12 12 11 11 10 10 9 9 9 9 9 8 8 9 9 9 8 7 7 6 5 5 5 5 4 4 3 3 4 3 3 3 4 3 3 3 3 3 3 3 4
13 13 12 12 11 11 11 10 9 9 8 8 8 8 8 8 9 9 8 7 6 6 5 5 4 4 4 3 3 3 3 3 3 2 2 2 2 3 3 3 3 3 4
14 14 13 12 12 11 11 10 9 9 8 7 7 8 8 8 8 7 7 6 6 5 4 4 4 4 4 3 3 3 2 2 2 2 2 2 3 3 3 3 3 3 4
14 14 13 12 11 10 10 9 8 7 4 5 6 7 7 8 7 6 6 5 5 5 4 4 3 3 3 3 3 3 2 2 2 1 2 2 3 3 2 2 3 3 4
14 14 13 13 12 11 10 9 8 7 8 5 5 5 5 6 6 5 5 5 4 4 4 4 3 3 3 3 3 2 2 2 1 1 1 2 2 3 2 2 3 3 4
14 14 14 13 13 12 11 10 9 9 7 7 6 5 6 5 5 4 4 4 3 3 3 3 3 3 3 2 2 2 1 1 1 0 1 1 2 2 2 2 2 3 3
14 14 13 13 13 12 12 11 9 9 8 7 7 6 6 5 4 4 4 4 3 3 3 3 3 2 2 2 2 2 1 1 1 1 1 1 1 1 2 1 2 2 2
14 13 13 13 13 13 12 11 10 9 8 7 6 6 5 5 4 4 4 3 3 3 2 3 3 2 2 2 2 2 1 1 1 0 0 0 0 1 1 1 1 1 1
13 12 12 12 12 12 12 11 9 8 7 5 5 5 4 4 5 4 3 3 3 3 2 2 2 2 2 2 2 2 1 0 -0 -0 0 1 1 1 1 1 1 1 1
13 13 12 12 12 12 11 10 9 8 7 6 4 2 3 3 3 3 3 3 3 2 3 2 2 2 2 2 1 1 0 -1 -1 -0 1 1 1 1 1 1 0 -0 -0
13 12 12 12 12 11 10 9 8 7 7 7 5 3 3 4 3 3 3 3 3 3 1 2 2 2 2 1 1 0 -0 -1 -0 1 1 1 1 1 1 1 0 -0 -0
11 11 11 11 11 10 9 8 8 7 7 5 4 4 4 3 3 3 3 3 2 2 1 2 2 1 1 1 0 0 -0 -0 0 1 1 1 1 1 1 1 0 -0 0
11 10 10 9 9 9 9 7 7 6 5 6 3 3 3 3 3 2 2 2 1 1 1 1 1 1 1 0 0 -0 -1 -0 1 1 1 1 1 1 1 0 0 0 0
10 8 8 8 7 7 7 7 7 6 5 5 4 3 3 3 3 2 1 1 1 1 1 1 1 1 1 0 -1 -1 0 1 1 1 1 1 1 0 0 0 -0 -1 -0
7 7 7 7 7 7 7 7 6 5 4 4 3 3 4 3 2 2 2 1 1 1 1 1 1 1 1 0 0 0 0 1 1 1 1 1 0 0 0 -0 -0 -1 -1
7 7 7 7 7 6 5 5 5 5 4 3 3 3 3 3 2 2 2 1 1 0 0 0 0 -0 0 0 0 0 0 0 1 0 0 0 0 0 0 -0 -1 -1 -1
6 6 6 6 5 5 5 5 4 4 3 3 3 3 3 2 2 2 1 1 1 0 -0 -0 -0 -0 -0 -0 -0 0 0 1 0 0 0 0 0 0 -0 -0 -1 -2 -2
5 5 5 5 4 4 4 4 3 3 3 3 3 2 2 2 1 1 1 1 0 -1 -1 -1 -0 -0 -0 -0 0 0 0 0 0 0 -0 -0 -0 -0 -0 -0 -1 -1 -2
5 4 4 4 4 4 3 3 3 2 2 2 1 1 1 1 1 1 1 0 -1 -1 -1 -1 -1 -0 -0 0 0 0 0 0 -0 -0 -0 -1 -0 -0 -0 -1 -1 -1 -1
4 3 3 3 3 3 3 3 2 2 2 1 1 1 1 0 0 0 0 -0 -2 -2 -1 -1 -1 -0 -0 -0 0 0 0 -0 -0 -1 -1 -1 -1 -1 -1 -1 -1 -1 -1
3 3 1 2 3 2 2 1 1 1 1 1 0 0 0 -0 -0 -0 -0 -1 -2 -1 -1 -1 -1 -0 -0 -0 -0 -0 -0 -1 -1 -1 -2 -1 -1 -1 -1 -1 -1 -1 -1
3 2 2 2 2 1 1 1 1 1 1 0 -0 -1 -1 -0 -0 -1 -1 -1 -1 -1 -1 -1 -1 -0 -0 -0 -0 -1 -1 -1 -1 -2 -2 -2 -2 -1 -1 -1 -1 -1 -1
2 2 2 1 1 1 1 1 1 1 0 0 -0 -1 -0 -1 -2 -2 -1 -1 -1 -1 -1 -1 -1 -1 -1 -1 -1 -1 -1 -2 -2 -2 -2 -2 -2 -2 -2 -2 -1 -1 -2
2 2 2 1 1 1 1 1 1 0 0 -0 -0 -0 -0 -1 -2 -2 -2 -2 -1 -1 -1 -1 -1 -1 -1 -1 -1 -2 -2 -2 -2 -2 -2 -2 -3 -3 -2 -2 -2 -2 -2
1 1 1 1 1 1 1 1 1 0 0 0 0 -0 -1 -2 -2 -2 -2 -2 -1 -1 -1 -1 -1 -2 -2 -2 -2 -2 -2 -2 -2 -2 -3 -3 -3 -3 -3 -2 -2 -2 -3
Height
3176 3178 3179 3179 3181 3183 3184 3185 3186 3186 3187 3185 3184 3183 3181 3180 3177 3174 3171 3169 3168 3166 3165 3164 3162 3160 3158 3157 3154 3152 3149 3146 3142 3147 3141 3137 3137 3134 3132 3128 3127 3126 3125
3171 3172 3173 3174 3176 3178 3182 3178 3180 3183 3181 3181 3180 3178 3178 3175 3172 3170 3167 3165 3164 3163 3161 3159 3158 3155 3152 3151 3149 3147 3143 3139 3135 3132 3136 3130 3126 3126 3123 3120 3118 3116 3115
3164 3166 3166 3168 3168 3170 3170 3171 3174 3175 3177 3177 3178 3176 3174 3171 3168 3164 3163 3160 3158 3159 3157 3155 3151 3150 3149 3145 3142 3140 3137 3135 3130 3124 3122 3123 3119 3116 3114 3111 3108 3107 3105
3158 3159 3159 3160 3162 3163 3163 3162 3166 3169 3170 3170 3170 3170 3169 3165 3163 3160 3156 3157 3154 3153 3152 3148 3146 3145 3142 3140 3137 3134 3132 3129 3125 3120 3115 3113 3112 3109 3103 3100 3097 3096 3093
3152 3152 3152 3154 3155 3155 3154 3151 3151 3150 3151 3159 3162 3160 3161 3160 3156 3154 3152 3151 3149 3149 3146 3143 3140 3138 3135 3133 3130 3129 3125 3122 3117 3113 3108 3105 3104 3099 3095 3091 3087 3084 3082
3144 3145 3145 3144 3144 3143 3143 3142 3141 3140 3143 3142 3146 3151 3152 3152 3150 3147 3145 3146 3144 3143 3142 3138 3133 3131 3129 3126 3123 3119 3117 3113 3109 3104 3100 3097 3095 3092 3087 3082 3078 3074 3069
3136 3136 3137 3136 3135 3134 3133 3134 3132 3134 3134 3133 3134 3139 3142 3143 3143 3141 3141 3138 3138 3137 3135 3131 3127 3124 3122 3119 3116 3112 3110 3106 3100 3095 3092 3090 3086 3084 3076 3072 3069 3064 3059
3129 3128 3128 3128 3126 3125 3123 3122 3123 3125 3122 3121 3124 3128 3131 3133 3133 3133 3131 3130 3129 3128 3126 3124 3121 3118 3114 3111 3107 3105 3102 3098 3094 3089 3084 3081 3077 3073 3067 3061 3057 3051 3047
3123 3123 3123 3122 3120 3118 3116 3116 3115 3115 3115 3114 3118 3120 3122 3124 3125 3127 3127 3125 3123 3121 3118 3117 3113 3109 3106 3103 3099 3097 3094 3090 3086 3082 3077 3072 3069 3065 3059 3051 3048 3040 3034
3116 3116 3116 3116 3113 3110 3108 3108 3106 3106 3105 3109 3110 3114 3121 3122 3122 3123 3120 3118 3116 3113 3110 3108 3105 3101 3099 3096 3092 3089 3085 3082 3079 3075 3070 3064 3060 3057 3053 3045 3039 3032 3025
3109 3109 3108 3107 3107 3105 3102 3100 3098 3098 3099 3098 3095 3107 3111 3110 3112 3112 3111 3109 3105 3104 3102 3100 3098 3095 3091 3088 3085 3081 3077 3073 3069 3065 3061 3057 3053 3049 3045 3039 3034 3025 3017
3102 3101 3101 3100 3099 3096 3096 3093 3091 3093 3091 3093 3092 3098 3102 3103 3103 3103 3102 3100 3098 3096 3095 3093 3090 3087 3083 3080 3077 3072 3069 3065 3061 3058 3053 3049 3045 3041 3037 3032 3027 3021 3013
3094 3094 3092 3090 3090 3088 3088 3087 3087 3087 3086 3087 3087 3092 3095 3096 3094 3094 3094 3093 3091 3088 3087 3085 3083 3080 3076 3072 3068 3064 3061 3059 3055 3051 3047 3043 3038 3033 3029 3024 3020 3013 3007
3084 3085 3083 3082 3082 3081 3080 3080 3081 3082 3081 3081 3084 3085 3086 3087 3088 3086 3086 3084 3083 3080 3080 3078 3076 3073 3069 3064 3059 3056 3054 3052 3048 3044 3041 3037 3032 3027 3023 3016 3011 3005 2998
3075 3075 3075 3076 3075 3075 3075 3074 3075 3076 3074 3076 3077 3077 3079 3080 3079 3078 3078 3077 3075 3075 3073 3070 3068 3064 3060 3056 3053 3052 3048 3045 3042 3037 3034 3030 3025 3021 3017 3011 3006 3000 2992
3066 3067 3068 3068 3068 3067 3069 3069 3069 3068 3069 3070 3070 3072 3073 3072 3072 3072 3071 3070 3069 3067 3064 3062 3060 3057 3053 3050 3049 3046 3044 3041 3036 3032 3028 3024 3020 3015 3011 3007 3002 2997 2990
3063 3063 3063 3063 3063 3064 3064 3063 3061 3061 3062 3065 3066 3067 3067 3067 3066 3065 3063 3062 3060 3058 3056 3054 3052 3049 3047 3046 3044 3042 3039 3035 3031 3027 3023 3019 3015 3011 3007 3003 2999 2995 2990
3058 3058 3058 3059 3060 3060 3060 3059 3060 3059 3060 3061 3062 3062 3061 3060 3058 3057 3055 3053 3051 3049 3048 3046 3044 3044 3042 3040 3038 3036 3033 3029 3026 3022 3019 3015 3011 3008 3005 3001 2997 2993 2988
3054 3055 3056 3055 3055 3056 3056 3056 3056 3058 3057 3057 3057 3055 3054 3052 3050 3049 3048 3045 3043 3043 3041 3040 3038 3037 3035 3034 3032 3030 3027 3024 3021 3018 3015 3012 3009 3006 3003 2999 2995 2991 2987
3049 3050 3051 3050 3050 3050 3050 3051 3051 3051 3050 3049 3048 3046 3046 3045 3043 3042 3041 3038 3037 3036 3035 3033 3031 3030 3029 3028 3026 3023 3021 3019 3017 3014 3011 3009 3007 3004 3001 2998 2994 2989 2986
3044 3045 3046 3045 3047 3045 3045 3045 3046 3044 3042 3041 3040 3040 3040 3038 3036 3035 3033 3032 3030 3029 3027 3026 3025 3025 3023 3022 3020 3018 3016 3015 3013 3011 3009 3007 3006 3003 3001 2997 2993 2989 2985
3038 3039 3041 3042 3042 3040 3040 3039 3038 3037 3036 3035 3034 3033 3033 3032 3030 3029 3027 3026 3024 3023 3021 3021 3020 3019 3018 3016 3015 3013 3012 3011 3010 3008 3007 3005 3004 3002 2999 2997 2993 2989 2986
3032 3034 3035 3035 3035 3034 3033 3032 3030 3030 3029 3028 3028 3027 3026 3025 3024 3022 3021 3020 3019 3018 3017 3016 3014 3013 3012 3011 3010 3010 3009 3008 3007 3006 3005 3004 3002 3001 2998 2996 2993 2990 2987
3027 3028 3028 3027 3027 3026 3025 3024 3024 3023 3022 3021 3020 3020 3019 3019 3017 3017 3016 3015 3014 3012 3011 3009 3008 3007 3007 3007 3006 3006 3006 3005 3005 3004 3003 3001 3000 2999 2997 2994 2993 2989 2987
3021 3021 3021 3020 3020 3019 3018 3017 3017 3016 3016 3015 3015 3015 3014 3013 3012 3012 3011 3010 3008 3006 3005 3003 3002 3002 3002 3002 3003 3003 3003 3003 3002 3002 3001 2999 2997 2997 2996 2994 2991 2990 2986
3015 3015 3014 3013 3012 3011 3011 3010 3009 3010 3010 3010 3009 3008 3007 3007 3007 3006 3005 3003 3002 3000 2999 2998 2998 2998 2998 2998 2999 2999 3000 3000 2999 2999 2998 2997 2995 2994 2994 2992 2990 2988 2987
Wind_Speed
21 22 26 31 30 28 26 26 28 23 24 20 21 19 17 17 17 16 16 17 16 17 18 19 19 19 19 21 22 24 25 27 30 24 30 30 25 26 28 31 31 32 33
23 26 27 30 33 27 31 27 29 35 27 25 25 22 20 19 18 18 16 15 16 17 18 20 21 21 20 21 22 22 25 29 34 35 27 28 31 27 29 29 30 32 32
27 27 31 33 37 40 35 38 27 34 33 27 27 23 24 22 18 17 17 16 14 15 18 21 20 21 22 24 24 25 29 28 33 36 33 28 29 28 29 29 30 33 34
27 27 30 33 35 39 41 45 46 33 30 32 28 25 28 25 20 17 16 17 14 17 21 23 22 25 25 25 27 29 31 30 32 34 33 31 29 29 32 32 33 35 36
22 22 22 24 36 42 45 49 48 50 31 30 28 28 29 26 23 19 17 19 19 21 24 25 24 26 26 28 32 32 32 34 38 37 37 36 32 35 37 37 38 38 39
20 20 20 24 29 38 47 49 49 48 30 35 28 30 28 28 24 21 20 21 24 26 27 28 27 27 28 34 33 33 31 35 39 38 34 32 33 36 38 38 38 40 46
28 29 30 31 30 31 35 39 45 46 44 25 35 32 30 25 24 25 24 24 27 29 30 27 29 30 33 35 33 32 30 36 38 35 32 31 36 34 38 39 39 44 47
24 23 24 29 33 33 33 33 35 36 40 31 31 31 26 26 27 29 26 27 28 30 31 31 33 31 35 34 32 30 32 35 36 34 35 36 36 35 39 42 44 47 48
10 10 14 18 23 29 35 32 33 33 38 41 33 32 31 32 35 34 28 35 32 32 30 32 33 34 32 33 35 35 36 33 35 36 35 37 37 36 39 45 43 46 49
11 14 23 24 24 27 30 31 30 30 30 23 33 28 28 29 30 31 34 42 44 36 28 33 35 34 33 35 34 34 34 33 33 33 35 35 35 35 37 39 41 44 48
21 32 37 34 26 27 30 30 27 29 30 33 39 27 32 31 26 32 39 47 33 29 27 31 35 35 35 34 33 33 34 31 30 32 32 31 31 32 32 33 35 41 47
37 34 33 28 30 27 29 27 22 27 28 27 34 34 38 32 28 33 41 34 27 28 26 31 32 35 34 33 33 32 30 28 29 30 31 29 29 30 29 32 35 37 37
27 31 29 26 30 28 24 16 19 23 23 31 32 38 32 25 28 31 31 29 25 26 28 30 33 32 32 32 32 32 29 29 30 30 30 29 29 30 31 33 31 35 35
33 27 24 25 26 26 19 16 16 22 31 30 29 26 28 36 30 26 27 25 25 27 28 31 29 29 30 31 31 27 27 27 29 31 31 29 29 30 31 31 32 33 35
24 19 18 20 20 21 19 19 13 16 19 28 36 26 25 31 26 23 24 24 26 29 31 29 27 28 27 28 24 21 24 26 28 29 29 27 27 27 27 27 27 27 32
13 11 10 12 12 8 9 13 16 17 20 24 26 23 25 25 24 26 26 27 31 31 27 25 25 23 25 19 18 20 23 27 28 27 26 26 25 26 25 22 22 23 28
7 7 10 11 10 10 13 15 16 16 16 16 20 22 22 23 25 27 29 30 32 30 28 26 24 23 23 22 23 24 26 28 28 27 25 23 23 24 23 21 20 20 22
8 10 13 13 11 10 12 15 16 17 17 19 22 24 24 25 25 28 30 31 31 28 24 23 24 25 24 23 24 26 27 27 27 24 22 21 21 21 19 18 20 19 20
9 12 14 12 10 12 16 19 19 20 20 21 23 24 25 24 26 27 28 29 25 23 24 24 23 22 21 22 23 24 25 25 24 21 19 18 17 17 17 17 17 18 18
13 17 15 13 14 15 16 14 16 18 22 26 25 25 23 25 26 27 30 26 23 25 25 22 21 20 20 21 22 23 22 21 19 16 15 14 14 14 14 15 15 15 15
16 16 15 14 14 13 13 16 21 25 26 25 25 24 25 24 26 28 26 24 24 26 27 21 20 20 20 21 21 20 18 16 15 13 12 11 12 12 13 14 15 15 15
16 15 17 16 17 17 18 20 24 21 21 23 23 22 22 23 27 26 24 25 24 22 20 19 20 20 20 20 18 16 14 12 11 11 10 10 10 11 11 13 14 15 15
14 16 19 18 20 21 22 22 22 20 19 20 20 22 22 25 26 24 24 25 23 21 21 21 21 21 20 18 16 13 10 9 9 10 10 10 10 9 10 11 12 12 13
16 17 19 20 21 23 23 22 20 19 20 20 20 22 24 22 20 23 24 20 20 22 22 19 18 18 17 15 12 10 9 9 9 9 10 11 10 9 9 10 10 11 11
18 20 23 24 24 23 24 23 20 20 19 19 18 20 19 18 21 21 20 20 21 21 18 16 16 15 14 12 11 9 9 9 10 10 11 12 12 10 9 8 9 7 8
20 22 23 22 21 21 20 17 16 16 17 18 18 17 17 17 17 19 20 21 21 20 18 16 15 14 13 12 11 10 10 11 11 11 11 11 11 10 7 6 5 6 6
Wind_Direction
231 238 246 247 239 241 247 269 273 265 282 289 294 298 302 297 310 309 314 317 321 316 309 308 307 306 302 298 296 300 301 302 302 301 297 292 290 292 290 288 284 281 278
239 241 247 253 246 257 258 256 266 270 264 277 283 284 290 288 304 302 303 311 315 314 308 309 307 304 307 306 303 305 303 306 305 302 298 292 294 293 292 289 287 283 280
240 248 253 253 255 255 263 253 263 269 261 265 279 275 282 281 285 292 299 302 311 310 309 309 304 306 309 308 306 301 305 307 308 308 309 299 295 296 295 290 286 284 281
256 262 266 266 266 265 267 257 249 275 256 270 270 267 275 274 275 276 286 290 295 311 312 313 307 309 301 301 304 300 299 298 303 306 305 306 302 300 299 297 290 290 290
262 267 269 273 268 262 261 258 252 255 241 250 255 259 268 274 270 270 279 286 291 304 312 313 310 305 300 303 305 303 296 296 302 304 300 296 298 301 303 300 297 297 297
259 262 259 254 259 264 262 264 263 257 291 249 238 252 258 266 265 269 278 290 293 291 303 306 309 306 303 306 303 302 300 299 303 306 295 296 300 299 300 299 299 298 301
258 259 257 261 263 269 268 266 267 271 263 307 248 232 259 250 261 271 279 285 293 291 293 306 308 305 304 304 303 303 297 304 307 299 295 296 301 301 300 300 301 304 303
266 269 268 266 266 269 268 270 274 273 269 277 263 252 235 237 249 257 261 274 277 284 291 303 307 302 302 302 301 302 300 302 300 298 299 301 303 304 301 302 307 305 304
254 298 304 303 302 289 278 276 272 275 279 278 251 248 231 238 249 261 278 275 278 282 285 298 300 302 301 301 303 301 299 295 293 294 297 300 302 302 302 303 306 303 307
253 290 303 305 301 300 292 278 275 276 264 258 237 232 247 251 262 278 276 288 289 280 280 297 299 301 299 300 299 298 298 296 292 292 297 300 299 296 297 300 304 306 307
281 296 302 306 301 299 297 287 280 268 254 249 224 227 246 245 266 270 286 298 282 270 288 293 298 298 297 297 296 299 302 300 295 299 303 303 299 298 299 301 303 306 312
287 292 290 291 294 290 298 292 283 277 287 274 263 233 245 265 259 281 289 283 270 278 288 295 295 295 294 293 295 298 303 303 303 306 307 305 305 303 301 301 305 308 314
283 289 284 282 285 288 297 297 286 279 280 254 231 241 269 268 269 276 274 276 279 288 292 293 294 289 291 294 298 301 300 297 304 307 309 308 306 304 305 305 310 314 312
284 282 272 273 281 280 265 284 290 287 275 271 235 244 264 263 268 275 270 274 284 292 292 293 290 290 294 300 304 297 295 298 305 307 306 304 303 305 309 311 315 320 319
283 263 273 279 284 278 281 275 268 280 287 261 249 289 268 265 269 271 271 281 293 295 294 295 293 295 301 305 302 297 301 306 308 309 309 307 308 311 316 317 320 325 333
261 263 270 271 262 251 257 272 268 273 267 268 264 270 265 271 278 286 292 294 298 298 294 293 294 299 306 299 296 305 311 310 310 310 309 310 312 315 320 322 322 328 343
238 245 245 248 250 239 248 257 268 269 266 253 252 262 276 282 285 291 291 289 295 295 293 290 290 296 299 289 289 299 305 308 308 309 309 311 314 319 323 323 323 320 340
239 233 223 219 230 246 265 267 258 252 254 263 277 286 285 287 288 292 293 295 296 291 289 289 292 294 291 291 292 297 301 304 306 308 309 313 318 321 324 323 325 332 340
251 230 221 226 253 270 271 266 263 268 273 281 285 285 285 285 286 288 295 297 292 292 295 291 292 292 291 291 293 296 300 301 303 306 310 314 321 323 327 328 327 330 339
228 213 222 245 265 276 265 262 262 270 284 292 289 286 282 287 288 290 299 295 287 291 297 294 296 294 293 294 294 296 298 300 302 306 313 320 325 329 336 337 339 335 335
235 233 239 256 277 267 262 268 275 283 286 285 284 282 281 285 287 294 299 300 294 293 297 286 291 289 293 294 294 295 297 298 303 313 317 320 322 327 335 341 349 352 350
233 239 242 270 269 262 277 285 294 289 283 280 277 281 280 282 287 290 291 299 295 299 300 293 291 289 290 291 293 294 293 298 306 313 315 315 320 325 333 340 347 355 1
253 248 253 268 268 275 283 286 286 287 283 276 275 276 278 281 281 282 291 296 295 296 297 292 287 286 287 286 287 285 286 296 305 311 313 314 319 323 325 330 335 346 354
257 259 264 267 276 282 284 283 283 283 281 278 277 277 275 266 272 280 291 292 292 295 297 294 287 282 280 278 274 271 281 293 303 309 311 313 317 321 319 318 324 329 342
258 266 269 271 275 279 283 282 280 282 277 272 272 273 270 272 273 278 285 289 293 297 298 295 288 281 272 265 258 264 278 290 300 306 309 312 315 321 319 314 313 327 332
265 268 270 274 277 278 280 282 281 274 269 273 276 278 276 273 276 282 287 291 294 297 296 291 284 275 264 255 246 258 275 288 297 305 308 310 314 317 319 314 311 319 334